RH
12 8 5 12 18 16 11 14 27 25 22 21 19 20 20 22 23 20 19 20 20 21 24 23 25 19 20 20 26 26 30 34 26 26 25 25 32 30 28 26 32 34 42 41
9 10 6 5 15 18 15 10 16 24 24 22 20 20 20 20 20 23 24 24 23 23 26 30 27 27 27 25 19 18 25 30 30 28 25 22 23 20 20 21 28 26 34 38
5 7 8 5 8 19 19 14 12 19 23 24 22 22 22 22 21 21 23 24 21 18 18 21 23 24 24 26 27 25 24 21 20 24 26 23 16 16 18 20 21 21 26 33
5 5 6 6 5 16 20 20 13 14 23 24 26 27 26 24 24 23 22 23 22 22 21 22 22 25 26 24 25 28 28 22 23 23 23 22 22 22 22 21 20 22 23 33
6 5 6 6 6 10 18 23 18 13 12 20 28 30 29 29 27 26 25 24 24 24 25 26 26 26 26 25 26 27 28 28 28 28 27 25 23 25 28 30 30 30 28 31
6 6 6 6 6 6 14 20 22 17 14 13 20 22 28 31 32 31 29 27 25 26 26 26 28 29 29 28 28 29 31 32 33 30 29 30 30 32 35 28 31 31 29 26
8 6 6 6 6 6 8 17 24 24 18 14 13 18 24 32 35 35 34 31 28 29 29 30 30 31 32 33 32 34 37 42 44 36 34 47 33 32 32 36 30 32 34 36
33 12 7 6 6 6 8 15 22 27 24 18 14 13 16 25 35 39 39 37 34 32 32 33 34 35 38 37 37 39 42 43 39 40 37 34 34 34 36 37 38 38 36 39
87 61 24 8 7 6 8 11 22 25 28 23 19 16 16 18 25 35 40 41 42 38 37 37 41 42 39 40 40 39 37 36 40 42 41 46 36 37 43 47 42 40 43 46
26 91 86 38 9 7 6 9 20 26 28 26 24 19 16 18 20 27 36 43 45 44 43 43 45 46 45 44 42 42 44 46 47 47 46 40 37 43 50 51 43 45 47 49
4 31 100 97 51 11 7 8 14 26 28 27 27 24 19 17 20 25 32 42 46 48 50 50 50 50 49 50 48 46 48 48 49 53 57 54 50 49 50 50 51 58 60 62
5 5 77 100 100 67 11 9 15 25 32 31 30 28 23 19 21 30 40 43 46 51 54 56 55 57 60 57 58 56 57 54 51 52 52 56 61 59 59 62 66 68 70 72
3 9 22 100 100 100 56 11 12 27 34 35 34 32 27 23 22 28 38 43 47 53 59 64 71 76 78 71 66 64 61 61 70 71 70 65 68 66 67 71 77 76 70 70
5 6 42 98 98 99 100 32 15 29 44 50 39 36 34 28 24 31 39 46 57 63 68 72 77 90 95 93 80 77 78 80 90 89 89 89 77 77 77 72 66 62 60 56
4 4 36 84 99 98 99 75 22 29 48 52 58 42 37 32 33 35 47 65 70 72 74 78 82 94 98 97 96 94 82 94 98 96 89 84 79 65 56 50 55 59 49 69
4 4 26 70 99 98 97 98 73 36 57 72 94 70 49 44 45 67 73 79 81 81 85 94 98 97 99 97 97 80 93 96 92 78 71 65 59 50 44 43 45 44 45 71
22 4 34 90 99 98 97 98 86 65 100 100 100 100 71 72 79 81 86 84 89 85 96 98 98 98 98 98 94 82 95 92 77 64 54 44 37 35 34 34 36 36 41 46
28 9 59 98 98 97 98 98 100 100 89 99 99 96 95 76 76 87 81 82 93 98 98 97 97 98 97 95 82 85 80 60 53 48 38 32 30 29 30 29 30 34 40 52
10 51 98 97 97 97 97 98 98 98 95 98 95 93 95 94 82 92 99 98 98 97 97 97 96 96 96 93 92 85 71 64 43 33 29 27 26 25 24 22 24 23 35 63
97 97 97 97 98 98 98 98 97 98 98 93 97 94 98 98 91 95 100 98 97 97 96 97 96 96 95 95 93 80 59 36 28 22 21 21 20 19 18 17 16 24 39 42
97 97 96 95 95 98 98 97 97 97 97 97 98 100 97 98 98 99 99 96 96 96 95 96 95 82 78 73 60 44 34 25 22 22 21 22 23 21 17 18 22 31 37 30
96 94 94 98 97 96 96 96 96 96 95 94 91 94 99 97 98 96 96 96 95 94 90 93 80 66 52 49 44 33 26 25 24 22 24 25 21 19 21 24 30 40 43 42
96 96 95 96 96 96 96 96 96 94 94 90 91 93 96 97 96 96 95 95 95 90 79 70 58 52 53 44 36 32 30 27 31 33 30 25 24 26 30 31 30 29 29 32
94 94 95 95 96 95 94 90 83 81 79 86 95 100 95 96 96 95 94 95 66 59 65 58 53 51 46 41 37 30 33 40 41 40 38 36 34 30 29 30 32 36 36 34
94 95 94 95 96 96 94 90 89 91 94 97 97 96 95 96 94 94 89 86 60 61 54 48 44 41 35 30 33 36 36 35 32 29 27 27 28 29 31 35 32 29 26 30
93 94 96 96 96 96 96 96 96 96 96 96 96 94 94 94 86 67 51 45 41 40 40 39 35 26 26 30 30 30 30 30 30 30 31 32 33 27 22 21 31 38 44 50
95 96 96 95 96 96 96 95 95 95 95 93 92 92 90 85 64 41 38 30 28 29 27 23 24 26 27 27 27 31 31 29 30 31 28 22 23 31 39 43 47 51 52 54
Wind_Speed
23 22 21 20 18 20 17 16 16 14 11 11 8 7 6 7 4 4 4 5 6 6 4 5 2 3 2 3 3 3 3 3 1 4 6 7 8 5 6 2 3 3 4 5
29 26 24 22 19 18 19 19 17 13 11 8 8 8 7 5 5 3 2 3 5 6 5 2 4 4 5 4 3 3 2 1 1 1 3 3 2 3 2 1 3 2 3 6
33 31 28 26 22 20 18 19 16 16 14 10 8 10 10 6 6 5 4 2 1 3 4 4 4 5 5 5 4 5 3 1 1 1 2 1 2 1 2 3 3 2 3 13
36 34 32 29 27 22 21 19 20 17 14 14 14 12 12 12 9 8 7 5 4 3 2 4 3 4 5 3 3 7 7 2 2 4 6 7 7 7 8 7 8 5 5 16
43 39 36 33 31 28 23 23 22 22 22 20 17 15 15 13 11 12 11 9 9 7 6 5 5 4 4 4 4 8 6 4 7 9 10 8 8 10 12 14 16 16 10 13
50 46 41 37 34 34 29 25 25 26 26 24 21 19 17 15 13 12 12 12 10 10 10 9 9 9 9 9 10 10 9 6 7 4 4 9 13 8 6 6 9 14 16 10
56 53 48 43 40 38 35 31 28 29 31 29 26 23 19 19 17 16 14 14 14 12 11 12 14 15 15 15 14 12 11 8 5 5 7 1 5 4 7 6 5 7 7 8
62 58 54 50 45 42 40 36 34 32 34 33 30 28 24 22 21 20 18 15 15 15 15 14 11 12 14 13 12 11 10 8 5 4 5 10 15 11 8 8 8 9 7 7
65 63 59 57 51 48 45 41 38 37 37 37 32 31 29 26 23 24 22 18 17 16 17 15 8 6 7 5 4 6 7 8 10 8 4 5 5 5 4 4 10 7 6 5
65 66 62 59 58 53 50 46 43 41 42 38 37 34 32 29 28 26 24 20 19 18 19 17 18 17 15 8 9 10 13 14 17 15 9 7 15 13 11 6 5 3 5 9
64 65 66 60 58 57 54 51 47 45 44 41 39 36 35 35 32 29 26 22 23 20 18 17 18 14 15 15 19 15 11 8 8 9 7 8 11 8 7 8 8 15 16 18
66 64 66 66 57 57 57 56 49 47 47 44 39 41 40 37 32 32 30 30 22 13 14 16 13 14 13 16 12 18 16 16 8 8 6 10 11 14 16 17 22 20 22 24
69 67 64 62 62 57 59 59 52 51 49 46 46 43 39 37 37 35 33 32 29 26 24 23 23 23 24 23 21 21 18 15 21 22 19 18 17 20 19 20 26 31 33 32
71 71 65 65 63 57 58 61 56 51 48 46 45 36 44 42 38 34 34 34 30 28 27 30 32 31 28 28 28 25 24 23 24 25 26 25 23 25 29 31 32 33 31 32
72 73 68 69 63 58 54 57 57 52 49 32 43 47 43 34 37 41 36 32 29 29 31 35 37 37 34 34 33 28 27 27 25 23 22 26 28 28 30 32 32 32 32 30
73 73 69 67 60 60 51 50 55 55 52 49 35 29 29 38 37 32 33 29 27 29 32 39 40 38 32 18 21 20 19 19 16 21 22 25 29 29 30 31 31 31 30 31
69 72 67 67 60 59 61 57 66 54 46 45 37 29 35 27 33 35 31 28 30 35 37 39 36 30 26 30 25 23 21 16 20 23 23 25 25 26 26 28 29 29 29 29
62 70 63 58 57 54 60 61 49 44 48 44 37 32 30 36 39 38 36 33 32 33 32 31 30 26 25 19 20 17 16 17 17 20 22 23 23 25 26 25 26 26 24 25
52 55 58 57 56 58 56 55 58 47 47 47 39 44 35 33 38 31 31 32 32 23 27 28 23 25 14 12 14 13 17 18 18 16 16 20 22 22 22 22 22 22 22 22
51 65 55 57 64 58 58 43 36 51 52 47 42 30 38 31 32 35 33 28 22 15 22 21 25 23 22 19 19 20 19 13 14 16 16 16 17 19 20 20 20 19 20 22
48 46 37 39 53 49 48 23 35 24 22 37 45 46 40 34 35 38 30 17 14 11 13 16 9 13 18 17 17 11 10 13 13 13 15 16 16 17 16 16 18 20 24 28
51 50 41 39 41 14 15 20 16 14 13 21 35 37 36 35 38 25 20 13 13 7 12 11 5 14 15 13 10 9 10 10 13 16 16 17 18 18 19 20 21 25 30 34
30 37 26 18 11 8 11 12 13 13 20 27 31 34 37 31 32 14 11 9 7 10 12 7 9 13 13 11 10 9 10 15 14 14 16 18 19 22 26 28 30 34 37 39
29 13 11 6 6 5 9 20 19 23 20 26 34 41 30 29 18 10 8 9 9 8 9 9 13 14 13 10 9 12 13 14 15 18 21 24 26 27 29 31 34 38 41 44
8 8 8 9 12 11 15 19 21 22 22 29 37 37 21 19 10 8 8 12 8 9 9 14 14 11 7 9 11 13 15 16 18 21 23 25 27 30 33 36 39 41 41 41
10 9 17 16 15 16 18 21 23 26 28 27 22 12 7 6 7 7 7 9 6 10 15 13 8 6 8 11 12 14 16 19 22 24 27 30 34 37 37 36 36 39 42 44
9 13 14 18 17 16 17 20 21 23 21 19 12 7 6 9 6 8 11 9 11 10 7 4 6 7 9 11 13 15 17 20 24 28 31 31 31 32 36 40 41 43 44 44
Wind_Direction
277 283 291 299 307 306 307 304 312 317 321 330 333 344 356 357 4 5 353 355 7 7 12 29 70 59 44 0 340 345 283 305 251 242 190 196 212 185 192 243 171 121 131 145
268 274 280 285 294 298 300 297 295 302 307 310 316 323 327 329 334 347 353 354 359 9 5 7 27 14 5 14 23 3 354 137 242 247 217 225 263 227 259 10 80 155 136 173
260 263 269 277 281 288 290 292 290 290 293 289 294 306 307 302 311 305 295 275 304 341 342 347 345 353 354 4 25 21 14 360 338 253 317 262 256 254 259 244 53 325 238 178
251 256 260 265 271 273 280 279 279 276 273 282 287 286 285 291 291 289 287 287 273 284 280 307 304 335 334 330 2 358 352 309 314 315 296 276 269 271 267 252 233 243 210 187
249 250 253 256 261 265 265 270 272 271 269 271 272 275 282 282 282 280 279 280 286 273 271 266 271 273 294 282 282 318 316 299 305 300 285 258 255 260 259 253 239 232 212 201
247 246 247 249 252 257 259 261 265 266 265 264 262 268 273 275 272 278 275 273 272 281 280 287 286 283 282 273 275 280 278 269 297 280 229 283 281 233 227 255 242 232 233 250
245 244 243 244 247 250 253 254 255 257 261 261 261 261 264 270 267 264 269 268 270 272 273 281 285 287 286 284 279 274 273 270 248 243 248 259 195 207 252 236 211 195 205 239
242 242 242 241 243 245 248 248 252 253 257 259 257 258 258 257 261 263 262 258 263 271 275 280 285 282 284 278 268 260 255 246 251 256 241 287 275 255 234 232 239 238 232 246
240 237 237 240 239 241 245 245 246 249 253 255 258 255 254 252 253 256 258 257 259 258 263 261 253 247 272 258 260 236 227 216 226 249 247 236 255 258 239 240 267 243 253 256
240 236 233 233 236 236 240 243 243 244 249 252 257 255 257 253 249 251 255 253 251 251 252 251 252 256 251 241 236 246 237 238 240 244 241 253 256 263 267 251 270 276 300 290
242 237 231 229 232 234 236 239 241 244 247 249 251 255 253 252 248 246 248 248 242 243 239 245 254 249 245 242 245 252 248 239 225 216 224 255 241 255 243 255 266 298 294 282
241 236 232 228 228 232 233 237 236 240 243 246 247 248 249 250 246 242 241 242 241 228 236 240 242 238 236 242 240 252 240 236 231 235 243 271 275 286 274 266 285 287 288 283
238 235 230 227 224 229 231 234 234 237 240 246 246 246 246 246 246 244 242 243 243 245 256 254 248 251 254 251 252 245 235 238 256 268 257 265 286 285 276 279 286 287 288 289
234 229 224 221 224 228 231 231 231 232 237 240 245 243 241 242 243 241 241 241 242 246 249 255 258 252 262 250 248 249 257 260 257 252 257 271 276 274 276 281 283 286 288 291
229 223 220 215 219 229 229 229 230 230 231 237 242 245 240 239 239 239 239 238 242 248 255 261 264 265 256 253 257 256 262 259 261 267 268 267 271 275 280 282 283 286 287 287
218 215 213 213 213 224 205 213 227 221 225 227 236 242 236 236 232 229 229 235 245 260 268 263 265 261 255 249 244 259 251 253 265 263 260 264 274 276 279 281 285 285 288 288
210 206 206 205 211 214 201 209 220 216 212 222 225 234 228 224 224 227 228 244 255 268 263 256 252 248 241 244 251 261 269 266 257 262 269 274 278 280 281 281 282 283 285 287
201 197 199 201 208 200 206 211 218 218 211 214 217 228 233 232 231 234 243 251 252 249 243 241 237 237 237 249 260 257 258 257 261 270 277 279 281 281 280 282 284 286 289 288
183 188 198 199 192 199 205 206 217 224 209 208 215 220 225 231 231 231 235 236 232 226 223 228 232 230 229 227 231 254 263 271 278 275 275 273 274 280 285 289 292 294 290 283
185 182 171 178 192 198 201 210 195 191 196 213 225 228 213 214 222 226 221 214 210 204 214 218 223 227 235 244 257 257 271 271 285 285 280 286 291 292 295 296 297 294 285 278
167 166 163 171 184 191 192 177 190 193 193 197 206 216 229 224 213 210 205 197 197 199 196 205 208 220 231 234 243 240 265 282 282 288 299 302 299 296 292 296 301 294 283 279
174 174 174 173 177 168 184 174 170 176 179 188 207 214 210 198 196 193 186 175 178 178 181 191 207 206 204 208 221 253 264 274 297 305 303 302 301 299 299 300 294 287 284 285
148 148 138 149 150 158 160 163 155 170 183 191 186 183 188 185 185 174 167 167 169 149 175 196 195 178 184 205 234 244 278 301 308 303 299 298 296 297 297 296 293 292 292 293
142 108 99 103 119 133 153 170 177 185 185 182 186 187 177 175 164 150 143 148 153 180 190 184 177 180 199 220 243 283 300 305 300 293 292 294 295 295 296 297 297 297 298 298
113 75 67 76 103 126 151 161 164 165 168 177 178 180 164 148 138 130 132 159 179 193 181 174 182 189 229 274 292 301 304 303 303 304 305 303 302 302 302 302 302 301 302 303
66 73 107 110 117 118 125 132 138 141 153 163 165 143 120 116 129 152 160 165 169 171 174 176 200 264 292 300 304 304 304 304 305 307 307 307 307 306 307 307 307 307 306 307
89 98 114 114 116 123 130 134 138 145 150 148 133 111 141 139 170 163 164 161 159 163 180 242 283 286 288 294 298 298 300 304 305 305 309 310 310 311 310 308 307 306 306 307